QPF
0.01 0.01 0.01 0.00 0.00 0.00 0.00 0.00 0.00 0.01 0.01 0.00 0.00 0.00 0.00 0.00 0.00 0.00 0.00 0.00 0.00 0.00 0.00 0.00 0.00 0.00 0.00 0.00 0.00 0.00 0.00 0.00 0.00 0.00 0.00 0.00 0.00 0.01
0.01 0.01 0.01 0.00 0.00 0.00 0.00 0.00 0.00 0.01 0.01 0.00 0.00 0.00 0.00 0.00 0.00 0.00 0.00 0.00 0.01 0.01 0.01 0.00 0.00 0.00 0.00 0.00 0.00 0.00 0.00 0.00 0.00 0.00 0.00 0.00 0.00 0.00
0.03 0.02 0.01 0.00 0.01 0.00 0.00 0.00 0.01 0.01 0.01 0.00 0.00 0.00 0.00 0.00 0.00 0.00 0.00 0.00 0.01 0.01 0.01 0.01 0.01 0.01 0.00 0.00 0.00 0.00 0.00 0.00 0.00 0.00 0.00 0.00 0.00 0.00
0.03 0.03 0.02 0.02 0.02 0.02 0.02 0.01 0.01 0.01 0.01 0.00 0.00 0.00 0.00 0.00 0.00 0.00 0.00 0.00 0.00 0.01 0.01 0.01 0.01 0.01 0.01 0.00 0.00 0.00 0.00 0.00 0.00 0.00 0.00 0.00 0.00 0.00
0.03 0.03 0.03 0.04 0.03 0.03 0.02 0.02 0.02 0.02 0.01 0.01 0.00 0.00 0.00 0.00 0.00 0.00 0.01 0.01 0.01 0.01 0.01 0.01 0.01 0.01 0.01 0.00 0.00 0.00 0.00 0.00 0.00 0.00 0.00 0.00 0.00 0.00
0.08 0.06 0.05 0.04 0.04 0.04 0.04 0.03 0.03 0.02 0.02 0.01 0.00 0.00 0.00 0.00 0.00 0.01 0.01 0.01 0.01 0.01 0.01 0.01 0.01 0.01 0.01 0.01 0.00 0.00 0.00 0.00 0.00 0.00 0.00 0.00 0.00 0.00
0.11 0.08 0.06 0.06 0.06 0.07 0.06 0.05 0.04 0.04 0.03 0.02 0.02 0.01 0.01 0.01 0.01 0.01 0.01 0.01 0.01 0.01 0.01 0.01 0.01 0.01 0.01 0.01 0.01 0.01 0.01 0.00 0.00 0.00 0.00 0.00 0.00 0.00
0.08 0.07 0.07 0.06 0.06 0.08 0.09 0.09 0.08 0.08 0.08 0.07 0.05 0.04 0.02 0.02 0.02 0.01 0.01 0.01 0.01 0.01 0.01 0.01 0.01 0.01 0.01 0.01 0.01 0.01 0.01 0.01 0.01 0.01 0.00 0.00 0.00 0.00
0.08 0.07 0.07 0.06 0.07 0.08 0.10 0.12 0.11 0.11 0.10 0.08 0.06 0.04 0.03 0.03 0.03 0.02 0.02 0.02 0.02 0.02 0.03 0.02 0.02 0.02 0.02 0.02 0.03 0.03 0.02 0.02 0.01 0.01 0.00 0.00 0.00 0.01
0.08 0.07 0.06 0.06 0.07 0.08 0.10 0.10 0.09 0.08 0.07 0.06 0.05 0.04 0.04 0.04 0.03 0.03 0.04 0.04 0.04 0.04 0.04 0.04 0.03 0.03 0.03 0.04 0.04 0.03 0.03 0.02 0.01 0.01 0.00 0.00 0.00 0.00
0.09 0.08 0.08 0.08 0.08 0.07 0.06 0.05 0.06 0.05 0.05 0.05 0.04 0.03 0.04 0.04 0.04 0.04 0.03 0.04 0.03 0.02 0.03 0.03 0.02 0.02 0.03 0.03 0.04 0.04 0.03 0.03 0.02 0.01 0.01 0.01 0.01 0.01
0.10 0.09 0.09 0.08 0.06 0.05 0.04 0.04 0.05 0.05 0.05 0.04 0.04 0.04 0.03 0.03 0.04 0.04 0.04 0.05 0.05 0.04 0.03 0.04 0.05 0.06 0.07 0.07 0.07 0.06 0.05 0.04 0.02 0.02 0.02 0.02 0.02 0.02
0.08 0.06 0.05 0.05 0.05 0.06 0.05 0.05 0.05 0.05 0.05 0.05 0.05 0.05 0.04 0.03 0.03 0.03 0.04 0.05 0.06 0.06 0.06 0.06 0.07 0.07 0.08 0.07 0.07 0.06 0.05 0.04 0.03 0.03 0.02 0.02 0.03 0.02
0.06 0.04 0.04 0.04 0.04 0.03 0.03 0.03 0.04 0.03 0.02 0.02 0.02 0.02 0.03 0.03 0.02 0.02 0.02 0.02 0.03 0.03 0.04 0.04 0.04 0.04 0.05 0.05 0.05 0.05 0.05 0.04 0.04 0.03 0.03 0.04 0.03 0.03
0.06 0.05 0.05 0.05 0.04 0.03 0.02 0.02 0.02 0.02 0.02 0.02 0.01 0.01 0.01 0.01 0.01 0.01 0.01 0.01 0.01 0.02 0.02 0.02 0.02 0.02 0.03 0.04 0.04 0.04 0.04 0.04 0.04 0.04 0.04 0.04 0.04 0.04
0.05 0.05 0.05 0.04 0.04 0.03 0.03 0.02 0.02 0.02 0.02 0.01 0.01 0.01 0.01 0.01 0.01 0.01 0.01 0.01 0.01 0.01 0.02 0.01 0.01 0.01 0.01 0.02 0.03 0.03 0.03 0.03 0.04 0.04 0.04 0.04 0.03 0.04
0.07 0.07 0.06 0.05 0.05 0.04 0.04 0.04 0.03 0.03 0.02 0.02 0.02 0.02 0.02 0.01 0.02 0.02 0.02 0.01 0.01 0.01 0.01 0.01 0.01 0.01 0.01 0.01 0.02 0.02 0.02 0.03 0.03 0.03 0.03 0.02 0.02 0.02
0.05 0.06 0.06 0.05 0.05 0.04 0.03 0.03 0.02 0.02 0.02 0.01 0.01 0.01 0.01 0.01 0.01 0.01 0.01 0.01 0.00 0.00 0.01 0.01 0.01 0.01 0.01 0.02 0.02 0.02 0.02 0.02 0.02 0.02 0.02 0.02 0.01 0.01
0.05 0.05 0.05 0.04 0.04 0.03 0.02 0.02 0.01 0.01 0.00 0.00 0.00 0.00 0.00 0.00 0.00 0.00 0.00 0.00 0.00 0.00 0.00 0.01 0.01 0.01 0.02 0.02 0.02 0.02 0.02 0.02 0.02 0.02 0.02 0.02 0.02 0.01
0.03 0.03 0.03 0.03 0.02 0.01 0.01 0.01 0.00 0.00 0.00 0.00 0.01 0.00 0.00 0.00 0.00 0.00 0.00 0.00 0.00 0.00 0.01 0.01 0.01 0.01 0.02 0.02 0.02 0.01 0.01 0.02 0.02 0.02 0.02 0.02 0.02 0.02
0.01 0.01 0.01 0.01 0.01 0.01 0.00 0.00 0.00 0.01 0.01 0.01 0.01 0.01 0.01 0.00 0.00 0.00 0.00 0.01 0.01 0.01 0.01 0.01 0.01 0.01 0.01 0.02 0.02 0.01 0.01 0.02 0.03 0.03 0.03 0.03 0.04 0.04
0.00 0.00 0.00 0.00 0.00 0.00 0.00 0.01 0.01 0.01 0.01 0.01 0.01 0.01 0.00 0.00 0.00 0.01 0.01 0.01 0.01 0.01 0.01 0.01 0.01 0.01 0.01 0.02 0.02 0.03 0.03 0.03 0.03 0.03 0.03 0.04 0.04 0.04
0.00 0.00 0.00 0.00 0.00 0.00 0.00 0.01 0.01 0.01 0.01 0.01 0.01 0.01 0.01 0.01 0.01 0.01 0.01 0.01 0.01 0.01 0.01 0.01 0.01 0.01 0.02 0.02 0.02 0.03 0.03 0.03 0.02 0.02 0.02 0.02 0.02 0.02
MSLP
1019.05 1019.47 1019.85 1020.19 1020.44 1020.59 1020.63 1020.56 1020.41 1020.19 1019.92 1019.63 1019.33 1019.04 1018.76 1018.52 1018.30 1018.14 1018.03 1018.00 1018.05 1018.17 1018.36 1018.60 1018.86 1019.11 1019.34 1019.51 1019.63 1019.70 1019.72 1019.73 1019.72 1019.73 1019.73 1019.75 1019.76 1019.75
1018.62 1019.02 1019.40 1019.72 1019.97 1020.13 1020.20 1020.18 1020.09 1019.93 1019.72 1019.47 1019.20 1018.91 1018.62 1018.33 1018.06 1017.83 1017.65 1017.55 1017.53 1017.60 1017.74 1017.94 1018.17 1018.41 1018.63 1018.80 1018.91 1018.98 1019.00 1019.00 1018.99 1018.99 1019.00 1019.02 1019.04 1019.05
1018.14 1018.51 1018.86 1019.16 1019.40 1019.57 1019.68 1019.71 1019.67 1019.58 1019.44 1019.26 1019.03 1018.77 1018.48 1018.18 1017.87 1017.59 1017.34 1017.17 1017.08 1017.07 1017.15 1017.29 1017.48 1017.67 1017.85 1017.99 1018.09 1018.14 1018.16 1018.15 1018.14 1018.14 1018.15 1018.18 1018.21 1018.24
1017.65 1017.98 1018.28 1018.55 1018.78 1018.95 1019.07 1019.14 1019.16 1019.14 1019.07 1018.95 1018.78 1018.56 1018.29 1017.99 1017.67 1017.36 1017.07 1016.84 1016.68 1016.60 1016.60 1016.67 1016.78 1016.90 1017.03 1017.12 1017.18 1017.21 1017.20 1017.19 1017.17 1017.17 1017.20 1017.23 1017.28 1017.33
1017.18 1017.46 1017.71 1017.94 1018.13 1018.29 1018.42 1018.51 1018.57 1018.59 1018.58 1018.52 1018.40 1018.23 1018.00 1017.73 1017.42 1017.10 1016.79 1016.52 1016.30 1016.16 1016.08 1016.06 1016.09 1016.13 1016.17 1016.20 1016.21 1016.19 1016.17 1016.14 1016.12 1016.13 1016.16 1016.21 1016.28 1016.35
1016.77 1016.99 1017.19 1017.37 1017.52 1017.65 1017.76 1017.85 1017.92 1017.97 1017.98 1017.96 1017.89 1017.77 1017.59 1017.35 1017.07 1016.77 1016.47 1016.18 1015.93 1015.73 1015.58 1015.48 1015.40 1015.35 1015.30 1015.25 1015.19 1015.13 1015.07 1015.03 1015.02 1015.04 1015.09 1015.16 1015.25 1015.34
1016.45 1016.61 1016.76 1016.88 1016.98 1017.07 1017.15 1017.22 1017.27 1017.31 1017.33 1017.33 1017.29 1017.20 1017.06 1016.87 1016.64 1016.38 1016.10 1015.82 1015.55 1015.31 1015.09 1014.91 1014.74 1014.58 1014.44 1014.30 1014.17 1014.05 1013.97 1013.92 1013.91 1013.94 1014.02 1014.12 1014.23 1014.35
1016.21 1016.33 1016.42 1016.50 1016.56 1016.61 1016.64 1016.67 1016.69 1016.70 1016.70 1016.68 1016.65 1016.58 1016.47 1016.33 1016.15 1015.93 1015.69 1015.43 1015.16 1014.89 1014.62 1014.35 1014.09 1013.84 1013.59 1013.36 1013.16 1013.00 1012.88 1012.82 1012.83 1012.89 1013.00 1013.13 1013.28 1013.41
1016.05 1016.13 1016.20 1016.25 1016.28 1016.29 1016.28 1016.26 1016.24 1016.20 1016.16 1016.12 1016.07 1016.00 1015.92 1015.81 1015.67 1015.49 1015.29 1015.05 1014.78 1014.49 1014.17 1013.83 1013.48 1013.13 1012.79 1012.48 1012.21 1012.00 1011.87 1011.81 1011.83 1011.93 1012.07 1012.24 1012.41 1012.56
1015.96 1016.04 1016.10 1016.14 1016.16 1016.15 1016.12 1016.06 1015.99 1015.91 1015.82 1015.73 1015.65 1015.57 1015.48 1015.38 1015.26 1015.12 1014.94 1014.71 1014.44 1014.12 1013.75 1013.35 1012.92 1012.49 1012.07 1011.68 1011.36 1011.12 1010.97 1010.92 1010.96 1011.09 1011.26 1011.46 1011.66 1011.83
1015.95 1016.04 1016.12 1016.18 1016.22 1016.21 1016.17 1016.09 1015.98 1015.86 1015.72 1015.58 1015.45 1015.34 1015.23 1015.12 1015.00 1014.86 1014.68 1014.45 1014.15 1013.80 1013.39 1012.93 1012.43 1011.93 1011.45 1011.01 1010.64 1010.38 1010.22 1010.18 1010.25 1010.40 1010.60 1010.83 1011.04 1011.21
1016.01 1016.14 1016.26 1016.37 1016.43 1016.46 1016.43 1016.34 1016.21 1016.05 1015.87 1015.69 1015.51 1015.34 1015.19 1015.05 1014.90 1014.73 1014.52 1014.26 1013.94 1013.55 1013.09 1012.58 1012.03 1011.48 1010.95 1010.47 1010.09 1009.81 1009.65 1009.62 1009.69 1009.86 1010.08 1010.31 1010.53 1010.69
1016.18 1016.35 1016.52 1016.68 1016.80 1016.86 1016.85 1016.78 1016.65 1016.46 1016.25 1016.01 1015.78 1015.56 1015.35 1015.15 1014.94 1014.72 1014.47 1014.17 1013.80 1013.36 1012.86 1012.31 1011.73 1011.14 1010.59 1010.09 1009.70 1009.42 1009.26 1009.22 1009.30 1009.46 1009.67 1009.90 1010.10 1010.25
1016.45 1016.67 1016.89 1017.10 1017.27 1017.37 1017.40 1017.34 1017.21 1017.02 1016.77 1016.49 1016.21 1015.93 1015.65 1015.38 1015.11 1014.82 1014.50 1014.14 1013.72 1013.24 1012.70 1012.12 1011.52 1010.93 1010.37 1009.88 1009.48 1009.20 1009.03 1008.98 1009.04 1009.17 1009.35 1009.54 1009.71 1009.82
1016.85 1017.10 1017.36 1017.61 1017.81 1017.95 1018.00 1017.96 1017.84 1017.63 1017.36 1017.05 1016.72 1016.37 1016.03 1015.69 1015.34 1014.97 1014.59 1014.16 1013.69 1013.17 1012.61 1012.02 1011.43 1010.84 1010.29 1009.81 1009.42 1009.13 1008.95 1008.87 1008.87 1008.95 1009.07 1009.20 1009.30 1009.37
1017.36 1017.63 1017.91 1018.18 1018.40 1018.55 1018.61 1018.58 1018.45 1018.23 1017.95 1017.61 1017.23 1016.83 1016.43 1016.01 1015.59 1015.16 1014.71 1014.23 1013.71 1013.17 1012.60 1012.01 1011.43 1010.87 1010.34 1009.88 1009.49 1009.18 1008.96 1008.83 1008.77 1008.76 1008.78 1008.82 1008.85 1008.85
1017.99 1018.25 1018.53 1018.78 1019.00 1019.14 1019.19 1019.14 1019.00 1018.77 1018.47 1018.10 1017.70 1017.26 1016.81 1016.34 1015.86 1015.37 1014.86 1014.33 1013.79 1013.23 1012.66 1012.09 1011.53 1010.99 1010.49 1010.04 1009.64 1009.31 1009.04 1008.82 1008.66 1008.54 1008.45 1008.37 1008.30 1008.22
1018.70 1018.95 1019.19 1019.42 1019.59 1019.70 1019.72 1019.65 1019.49 1019.24 1018.92 1018.53 1018.10 1017.64 1017.15 1016.65 1016.13 1015.59 1015.05 1014.49 1013.93 1013.37 1012.80 1012.25 1011.71 1011.19 1010.71 1010.25 1009.84 1009.46 1009.12 1008.81 1008.53 1008.27 1008.04 1007.84 1007.65 1007.47
1019.48 1019.69 1019.89 1020.06 1020.18 1020.24 1020.21 1020.10 1019.91 1019.64 1019.30 1018.91 1018.47 1017.99 1017.48 1016.96 1016.41 1015.85 1015.29 1014.71 1014.14 1013.57 1013.01 1012.47 1011.95 1011.44 1010.95 1010.49 1010.03 1009.59 1009.16 1008.74 1008.34 1007.95 1007.57 1007.23 1006.92 1006.64
1020.30 1020.47 1020.61 1020.72 1020.78 1020.77 1020.69 1020.53 1020.31 1020.01 1019.66 1019.26 1018.81 1018.33 1017.82 1017.28 1016.72 1016.15 1015.57 1014.99 1014.41 1013.84 1013.28 1012.74 1012.21 1011.70 1011.20 1010.70 1010.19 1009.68 1009.16 1008.63 1008.09 1007.57 1007.07 1006.59 1006.17 1005.79
1021.14 1021.26 1021.34 1021.39 1021.37 1021.30 1021.16 1020.96 1020.69 1020.37 1020.01 1019.60 1019.15 1018.67 1018.16 1017.62 1017.06 1016.48 1015.90 1015.31 1014.72 1014.14 1013.58 1013.03 1012.49 1011.95 1011.42 1010.87 1010.30 1009.72 1009.10 1008.47 1007.83 1007.19 1006.57 1005.99 1005.47 1005.01
1021.96 1022.03 1022.06 1022.04 1021.96 1021.82 1021.63 1021.37 1021.08 1020.73 1020.35 1019.93 1019.49 1019.01 1018.50 1017.96 1017.40 1016.83 1016.23 1015.64 1015.04 1014.45 1013.88 1013.31 1012.74 1012.18 1011.60 1011.01 1010.38 1009.72 1009.04 1008.32 1007.60 1006.87 1006.17 1005.52 1004.93 1004.41
1022.74 1022.77 1022.74 1022.66 1022.52 1022.32 1022.07 1021.77 1021.44 1021.07 1020.67 1020.24 1019.79 1019.31 1018.80 1018.27 1017.71 1017.14 1016.54 1015.95 1015.35 1014.75 1014.16 1013.57 1012.98 1012.38 1011.77 1011.13 1010.45 1009.74 1009.00 1008.24 1007.46 1006.69 1005.95 1005.26 1004.63 1004.09
Thickness
5723 5723 5722 5722 5721 5721 5720 5718 5714 5709 5711 5716 5719 5722 5722 5721 5720 5718 5717 5716 5714 5712 5710 5708 5706 5704 5702 5700 5699 5697 5695 5694 5693 5692 5690 5689 5688 5687
5721 5720 5720 5721 5720 5719 5718 5717 5716 5713 5710 5714 5716 5719 5719 5719 5718 5716 5715 5714 5712 5710 5708 5706 5704 5702 5700 5698 5696 5695 5693 5692 5690 5689 5688 5687 5686 5684
5719 5719 5719 5719 5718 5717 5716 5715 5713 5712 5709 5712 5712 5714 5714 5714 5714 5713 5712 5710 5709 5707 5705 5703 5701 5699 5697 5695 5694 5692 5691 5689 5688 5686 5685 5684 5683 5681
5717 5716 5716 5716 5715 5714 5713 5712 5711 5710 5709 5707 5708 5708 5709 5709 5709 5707 5707 5706 5704 5704 5702 5700 5698 5696 5694 5692 5690 5689 5687 5686 5684 5683 5682 5680 5679 5678
5715 5714 5713 5712 5711 5711 5710 5709 5708 5708 5706 5704 5703 5703 5703 5703 5702 5701 5701 5699 5699 5698 5697 5696 5694 5692 5690 5688 5686 5685 5683 5682 5680 5679 5677 5676 5674 5673
5713 5712 5711 5710 5709 5708 5707 5706 5704 5702 5700 5698 5697 5696 5696 5695 5694 5693 5693 5693 5692 5692 5691 5689 5688 5687 5685 5683 5681 5680 5678 5676 5675 5673 5671 5670 5668 5667
5709 5708 5708 5707 5706 5705 5703 5702 5700 5697 5695 5693 5691 5689 5688 5686 5685 5685 5684 5685 5685 5684 5683 5682 5680 5679 5678 5676 5674 5673 5671 5669 5668 5666 5664 5662 5661 5660
5704 5704 5703 5702 5701 5700 5698 5697 5695 5692 5689 5686 5684 5682 5681 5679 5678 5677 5675 5674 5675 5676 5672 5673 5671 5670 5669 5667 5666 5664 5663 5661 5659 5657 5655 5653 5652 5650
5699 5698 5697 5697 5695 5693 5692 5690 5688 5685 5684 5681 5679 5677 5674 5673 5670 5669 5667 5665 5666 5666 5662 5664 5662 5660 5660 5658 5657 5655 5653 5651 5649 5647 5645 5643 5642 5640
5694 5692 5690 5688 5687 5686 5684 5681 5679 5676 5675 5673 5671 5669 5667 5665 5662 5660 5658 5656 5656 5654 5652 5651 5654 5652 5651 5648 5647 5644 5642 5640 5638 5636 5634 5633 5631 5630
5686 5683 5682 5680 5678 5677 5675 5672 5669 5666 5664 5663 5661 5659 5657 5655 5652 5650 5647 5644 5644 5644 5640 5638 5640 5639 5639 5638 5635 5632 5630 5627 5625 5623 5621 5620 5618 5617
5675 5673 5671 5669 5668 5666 5664 5662 5659 5656 5653 5651 5649 5647 5645 5643 5640 5637 5635 5631 5630 5629 5627 5623 5624 5622 5623 5624 5621 5618 5615 5613 5611 5609 5607 5606 5603 5602
5665 5662 5660 5658 5657 5655 5653 5650 5647 5644 5641 5639 5637 5635 5632 5630 5627 5624 5620 5618 5615 5614 5612 5609 5607 5605 5603 5605 5606 5603 5600 5598 5596 5594 5593 5591 5589 5587
5654 5651 5649 5647 5645 5643 5640 5637 5634 5631 5629 5626 5623 5621 5618 5616 5613 5610 5606 5603 5600 5598 5595 5592 5591 5589 5587 5587 5588 5588 5584 5582 5580 5580 5579 5578 5576 5574
5642 5640 5637 5635 5633 5629 5626 5623 5621 5618 5615 5611 5608 5605 5602 5599 5597 5595 5592 5589 5585 5583 5579 5576 5573 5571 5569 5568 5570 5570 5569 5568 5565 5564 5564 5563 5562 5561
5629 5626 5624 5621 5618 5615 5611 5608 5605 5602 5598 5595 5591 5589 5586 5584 5581 5578 5576 5573 5570 5568 5563 5559 5556 5553 5553 5552 5551 5552 5551 5551 5552 5550 5549 5550 5549 5548
5616 5613 5610 5606 5603 5600 5596 5593 5589 5585 5582 5578 5575 5572 5570 5567 5564 5561 5558 5555 5552 5551 5549 5545 5540 5538 5537 5535 5536 5537 5537 5536 5536 5536 5535 5537 5539 5538
5603 5597 5593 5590 5586 5583 5580 5576 5573 5569 5565 5562 5559 5556 5553 5551 5548 5544 5541 5538 5536 5534 5531 5529 5526 5525 5525 5525 5521 5521 5522 5522 5522 5522 5521 5524 5529 5530
5587 5582 5578 5574 5570 5567 5563 5560 5556 5552 5549 5546 5543 5540 5536 5534 5531 5528 5526 5523 5520 5518 5515 5513 5510 5508 5510 5513 5514 5507 5506 5509 5509 5511 5512 5513 5518 5522
5570 5565 5561 5558 5554 5551 5547 5543 5540 5536 5533 5530 5527 5523 5520 5517 5515 5513 5510 5507 5506 5504 5503 5500 5497 5495 5494 5496 5499 5499 5496 5496 5498 5501 5503 5505 5509 5511
5554 5550 5545 5542 5538 5534 5531 5527 5524 5521 5517 5514 5511 5507 5504 5501 5499 5497 5496 5493 5491 5492 5491 5490 5488 5484 5483 5484 5487 5493 5492 5489 5489 5491 5494 5497 5502 5505
5538 5534 5530 5526 5522 5518 5515 5511 5508 5505 5502 5498 5495 5493 5490 5488 5486 5484 5483 5482 5482 5481 5481 5481 5480 5478 5478 5478 5481 5484 5487 5488 5488 5488 5488 5489 5491 5497
5522 5518 5514 5510 5506 5502 5499 5495 5492 5490 5486 5484 5481 5479 5477 5475 5474 5473 5472 5472 5472 5472 5473 5473 5473 5473 5473 5473 5475 5477 5480 5483 5485 5487 5489 5489 5488 5489